Tracking 20475 objects as of 27-Feb-2020
HD Live streaming from Space Station
objects crossing your sky now

INFORMATOR 1

Track INFORMATOR 1 now!
10-day predictions
INFORMATOR 1 is classified as:


NORAD ID: 21087
Int'l Code: 1991-006A
Perigee: 962.1 km
Apogee: 1,013.5 km
Inclination: 82.9 °
Period: 104.7 minutes
Semi major axis: 7358 km
RCS: 1.8857 m2 (large)
Launch date: January 29, 1991
Source: Commonwealth of Independent States (former USSR) (CIS)
Launch site: PLESETSK MISSILE AND SPACE COMPLEX (PKMTR)
aabbcc
Your satellite tracking list
Your tracking list is empty




NASA's NSSDC Master Catalog

Two Line Element Set (TLE):
1 21087U 91006A   20056.89020944 +.00000009 +00000-0 -62625-5 0  9999
2 21087 082.9440 032.2687 0034953 183.1549 204.8510 13.75280368459214
Source of the keplerian elements: AFSPC